Wind_Speed
10 9 9 8 7 6 6 5 4 3 2 2 2 2 3 3 3 2 2 2 2 3 3 4 5 5 6 8 8 8 9 10 10 10 10 9 9 9 8 8 8 7 7
10 10 9 8 7 6 5 5 4 4 3 2 2 2 2 3 3 2 2 1 2 2 3 3 4 4 5 7 7 8 8 10 10 11 11 11 11 11 10 10 9 9 9
11 10 9 8 7 7 6 5 5 4 4 3 3 2 2 2 2 2 2 1 1 1 1 2 3 3 4 5 6 7 8 9 10 10 11 12 12 12 12 12 11 11 11
12 10 9 8 7 7 7 6 5 5 4 4 3 3 3 3 3 2 1 1 1 1 1 0 1 2 3 4 5 6 7 8 9 10 10 11 11 12 13 13 13 13 12
13 11 10 8 8 8 8 7 6 5 4 4 4 4 3 3 3 2 2 1 1 1 1 1 0 1 1 3 3 4 5 6 7 8 9 10 11 11 12 13 14 14 13
14 13 11 9 9 9 8 7 6 6 5 5 5 4 3 3 3 2 2 2 2 1 1 1 1 1 0 1 2 2 3 4 5 6 8 8 10 11 12 12 12 13 14
14 13 12 11 10 10 9 8 7 6 6 5 5 4 4 3 3 3 2 2 2 1 1 1 2 2 2 1 0 1 2 3 4 5 6 7 8 9 11 12 13 13 13
15 14 13 12 11 11 10 9 8 7 7 6 6 5 4 4 3 3 2 2 2 1 1 0 0 1 1 2 2 2 2 3 3 5 6 7 7 7 9 11 12 12 13
15 15 14 13 12 12 11 10 9 8 7 7 6 6 5 4 3 3 3 3 2 2 1 1 2 2 2 2 3 4 4 4 4 4 5 6 6 7 7 8 9 11 12
17 16 15 14 13 13 12 11 10 9 9 8 7 7 6 5 4 4 3 3 3 3 3 3 3 4 4 4 4 5 5 5 6 6 6 7 7 8 8 9 10 11 11
17 17 16 15 14 14 13 12 11 11 10 9 8 7 7 6 6 6 6 5 5 5 5 6 6 6 7 7 7 7 7 7 8 8 8 9 9 9 10 10 11 12 13
18 18 17 16 15 14 14 13 12 12 11 10 10 9 8 8 8 8 8 8 8 8 8 9 9 9 9 10 10 10 10 10 11 11 11 12 12 13 13 13 14 15 15
19 18 18 17 16 15 14 14 13 13 13 12 12 11 10 10 10 10 10 10 10 11 11 11 11 12 12 13 13 13 14 14 14 15 15 16 16 16 16 17 17 18 18
19 19 18 18 17 16 16 15 14 14 14 14 14 13 13 13 13 12 12 12 13 13 14 14 14 15 15 16 16 17 17 17 18 18 19 19 20 20 20 21 21 21 21
19 19 19 18 17 17 17 16 16 15 15 15 15 15 15 15 15 15 15 15 16 16 16 17 17 18 19 19 20 20 21 21 22 22 22 23 23 23 24 24 25 25 25
19 19 18 17 17 16 17 16 17 17 16 16 16 17 17 17 17 17 18 18 19 19 20 20 21 21 22 23 24 24 25 25 26 26 27 27 27 27 28 28 28 29 29
18 19 18 17 17 17 16 17 17 18 18 18 18 19 19 19 20 20 21 21 21 22 23 24 24 25 25 26 27 28 29 29 30 30 31 31 32 32 32 32 32 33 33
18 19 18 18 18 18 18 18 18 18 19 20 20 21 21 21 22 22 23 24 24 25 25 27 28 28 29 30 30 31 31 32 33 34 34 35 35 36 36 37 37 37 38
19 19 19 19 19 19 19 19 19 19 20 21 22 22 23 23 24 25 26 26 27 28 28 29 30 31 32 33 33 34 35 36 36 37 38 38 38 39 39 40 40 41 41
19 19 19 19 20 19 19 19 19 20 21 22 23 24 24 25 26 27 28 29 30 31 32 32 33 34 35 36 36 37 38 39 39 40 41 41 41 43 43 44 44 45 45
19 19 20 20 20 19 19 19 20 21 22 22 23 24 26 26 28 29 30 31 31 32 33 34 35 36 37 38 39 39 40 41 42 43 44 45 46 47 48 49 49 49 49
17 18 18 19 20 20 20 20 21 22 23 24 25 26 28 29 30 31 32 32 33 34 35 36 37 38 39 41 42 43 44 44 45 46 48 49 50 51 52 52 53 54 54
16 17 18 19 20 21 22 22 23 24 25 26 28 29 30 30 31 32 33 34 36 37 38 39 40 42 43 44 46 47 48 49 49 50 52 53 54 55 56 56 57 57 58
17 17 18 20 21 23 24 25 26 27 27 28 29 30 31 32 33 35 36 37 38 40 41 42 44 45 47 48 49 50 52 53 54 55 56 56 56 57 57 58 59 60 60
18 18 19 21 24 25 26 26 27 28 30 31 32 33 34 35 36 37 39 40 41 43 44 46 47 49 50 51 52 54 55 56 56 57 58 59 59 59 60 60 61 62 62
18 19 21 22 24 26 27 28 29 30 32 33 34 35 36 37 38 39 41 42 45 46 48 49 50 51 53 54 55 56 57 58 58 59 60 61 61 61 61 61 62 63 63
Wind_Direction
226 229 233 230 231 230 227 224 219 218 205 198 198 187 183 210 209 212 227 233 228 235 242 241 243 248 242 239 242 242 243 243 243 244 243 245 247 249 250 251 253 254 255
220 227 230 225 221 220 221 217 208 209 206 194 183 172 185 203 202 203 216 226 233 238 245 249 247 248 244 242 243 244 247 245 246 248 248 248 249 250 251 252 254 255 255
217 222 222 219 216 215 215 211 206 212 213 202 190 176 176 185 189 192 204 215 218 232 249 249 245 250 249 246 246 249 250 248 248 249 252 253 252 252 252 253 254 256 256
210 210 208 207 208 209 205 198 195 202 200 192 185 179 181 185 181 183 170 157 142 104 69 259 238 247 247 254 255 254 253 249 248 248 252 255 256 255 255 253 255 256 256
204 201 201 203 202 200 196 191 191 192 190 183 183 183 183 177 175 171 170 158 137 116 92 81 73 255 261 259 259 258 258 253 249 249 252 257 259 258 256 256 256 256 256
198 198 201 202 197 195 194 192 192 193 191 186 186 184 179 177 173 170 175 173 154 137 115 97 83 70 22 281 269 268 261 259 256 254 255 258 261 259 256 256 258 256 256
198 199 203 200 195 196 196 195 195 195 198 197 196 193 188 188 180 171 172 179 171 151 119 106 80 59 47 34 324 281 272 272 267 266 266 267 268 263 259 257 256 257 258
200 201 201 200 199 198 198 200 199 200 203 205 205 205 202 197 192 184 187 195 209 221 229 245 343 20 17 4 349 323 300 286 278 275 272 274 274 271 267 261 257 259 261
202 200 200 203 203 202 204 204 204 206 208 208 207 203 203 204 208 212 213 213 220 236 267 292 300 306 316 322 321 324 317 304 293 291 286 283 280 279 276 268 263 263 266
205 202 203 206 207 206 207 208 209 209 209 210 210 210 212 217 226 230 231 234 243 255 267 280 288 294 299 302 303 303 305 304 296 292 291 289 284 281 278 275 273 272 272
205 205 206 208 210 210 210 212 215 215 217 219 220 222 225 230 235 242 248 251 257 263 269 274 280 286 291 294 294 294 292 291 291 289 285 285 285 285 282 279 277 277 275
207 208 208 210 212 213 215 218 220 220 223 226 230 234 239 243 246 252 257 260 262 263 267 271 276 280 284 286 287 288 287 286 285 285 284 283 282 282 279 277 276 275 275
209 212 212 213 215 219 221 223 225 227 230 234 239 244 247 251 255 259 263 266 269 271 272 274 275 278 281 282 283 283 283 283 283 283 282 283 282 281 279 278 276 275 273
212 214 214 216 220 223 225 228 231 234 237 241 245 249 252 254 258 261 264 266 269 273 275 276 276 277 279 281 283 282 282 282 283 282 281 281 281 280 279 278 277 276 275
213 216 217 218 223 226 229 231 235 238 243 246 249 252 255 258 261 264 265 266 268 271 273 275 277 278 279 280 281 281 281 281 281 280 279 279 280 279 278 277 276 275 274
214 217 219 222 225 230 232 235 238 243 247 250 253 256 259 262 264 267 268 269 271 273 275 276 278 280 281 281 282 281 281 280 280 280 279 279 279 278 277 277 275 274 273
214 217 221 224 227 232 237 239 242 247 250 252 255 259 262 265 267 270 271 273 274 275 276 276 277 279 281 281 281 281 281 281 281 281 280 280 279 278 277 276 275 274 273
218 222 225 227 231 236 239 242 247 250 252 255 258 261 264 267 270 273 275 276 277 278 278 278 279 279 280 280 281 280 281 281 281 280 279 279 278 277 276 275 274 274 273
223 225 228 231 236 240 243 246 250 254 256 259 262 264 266 268 271 273 275 276 278 279 279 280 280 281 282 282 282 282 281 281 280 280 279 278 278 277 275 274 274 273 272
224 228 232 236 240 243 246 248 252 255 259 262 264 265 268 271 273 274 276 278 279 280 281 282 282 283 283 284 284 284 283 283 282 281 280 279 277 276 275 274 274 273 272
227 232 236 240 243 246 248 252 255 258 261 264 267 269 271 273 275 277 279 281 281 282 283 284 284 284 284 285 285 285 285 284 283 283 282 280 279 277 276 274 273 273 272
236 240 242 245 248 251 253 256 259 261 264 267 270 272 273 275 277 279 281 282 284 284 284 285 285 285 285 286 286 286 285 284 283 282 281 280 279 277 276 275 273 272 271
243 247 248 250 254 257 259 261 262 264 266 269 270 272 275 277 279 281 282 284 285 285 285 285 285 286 286 286 286 286 285 285 283 282 281 280 279 278 276 275 274 272 271
249 253 257 259 262 264 265 266 268 269 269 271 273 276 279 280 280 281 283 284 285 286 287 286 286 287 287 287 286 286 285 285 284 283 282 281 279 278 277 276 275 273 272
256 261 267 266 265 265 265 267 271 272 273 274 276 278 281 282 282 283 284 285 286 287 287 287 287 287 287 287 287 286 286 285 285 284 283 282 280 278 277 276 275 273 272
265 267 270 271 272 271 270 272 275 277 277 278 280 281 283 283 285 285 285 287 287 288 288 288 288 288 288 288 288 287 287 286 285 284 283 283 282 280 278 277 276 274 273
Height
5881 5883 5883 5884 5885 5885 5885 5886 5886 5886 5886 5886 5886 5886 5886 5887 5887 5887 5887 5887 5887 5888 5888 5888 5888 5888 5888 5889 5889 5890 5890 5890 5891 5891 5892 5892 5892 5893 5893 5893 5893 5894 5894
5880 5881 5882 5883 5884 5884 5885 5885 5886 5886 5886 5886 5886 5886 5887 5887 5887 5887 5887 5887 5887 5887 5887 5887 5887 5887 5887 5887 5888 5888 5888 5889 5889 5889 5890 5890 5891 5891 5891 5892 5892 5892 5892
5878 5879 5881 5882 5883 5883 5884 5884 5885 5885 5886 5886 5886 5886 5887 5887 5887 5887 5887 5887 5887 5886 5886 5886 5886 5886 5886 5886 5886 5886 5886 5886 5887 5887 5888 5888 5888 5889 5889 5890 5890 5890 5891
5876 5878 5879 5881 5882 5882 5883 5884 5884 5885 5885 5886 5886 5886 5886 5887 5887 5887 5887 5887 5886 5886 5886 5885 5885 5885 5885 5885 5885 5885 5884 5884 5885 5885 5886 5886 5886 5887 5887 5887 5888 5888 5888
5874 5876 5878 5879 5881 5882 5882 5883 5884 5885 5885 5886 5886 5886 5886 5886 5887 5887 5887 5887 5886 5886 5885 5885 5885 5884 5884 5884 5884 5883 5883 5883 5883 5883 5884 5884 5884 5884 5884 5885 5885 5886 5886
5872 5875 5877 5878 5880 5881 5882 5883 5883 5884 5885 5885 5886 5886 5886 5886 5886 5886 5887 5886 5886 5886 5886 5885 5885 5884 5884 5883 5883 5883 5882 5882 5882 5882 5882 5882 5882 5882 5882 5882 5882 5883 5883
5871 5873 5875 5877 5878 5880 5881 5882 5883 5883 5884 5885 5885 5886 5886 5886 5887 5887 5886 5886 5886 5886 5886 5885 5885 5884 5884 5883 5882 5882 5881 5881 5881 5881 5880 5880 5880 5880 5880 5880 5880 5880 5880
5869 5871 5874 5875 5877 5878 5880 5881 5882 5883 5883 5884 5885 5885 5886 5887 5886 5886 5886 5886 5886 5886 5886 5885 5885 5884 5884 5883 5882 5882 5881 5880 5880 5879 5879 5879 5878 5878 5878 5877 5878 5878 5878
5867 5869 5872 5874 5875 5877 5878 5879 5881 5882 5882 5883 5884 5885 5885 5885 5886 5886 5886 5886 5886 5886 5886 5885 5885 5884 5883 5883 5882 5881 5880 5880 5879 5878 5878 5877 5877 5876 5876 5875 5875 5875 5875
5865 5867 5870 5872 5873 5875 5876 5878 5879 5880 5881 5882 5883 5883 5884 5885 5885 5885 5885 5885 5885 5885 5885 5884 5884 5883 5883 5882 5881 5881 5880 5879 5878 5877 5877 5876 5875 5875 5874 5874 5873 5873 5872
5862 5865 5868 5870 5872 5873 5875 5876 5877 5879 5880 5881 5882 5882 5883 5883 5884 5884 5884 5884 5884 5884 5883 5883 5883 5882 5881 5881 5880 5879 5878 5877 5877 5876 5875 5874 5873 5873 5872 5871 5871 5870 5869
5860 5863 5865 5867 5869 5871 5872 5874 5875 5877 5878 5879 5880 5881 5881 5882 5882 5882 5882 5882 5882 5882 5881 5881 5881 5880 5879 5878 5878 5877 5876 5875 5874 5874 5873 5872 5871 5870 5869 5868 5868 5867 5866
5857 5860 5862 5865 5867 5868 5870 5872 5873 5874 5875 5877 5877 5878 5879 5879 5879 5879 5879 5879 5879 5879 5879 5878 5878 5877 5876 5876 5875 5874 5873 5872 5871 5870 5869 5868 5867 5866 5865 5865 5864 5863 5862
5854 5857 5859 5862 5864 5866 5867 5869 5870 5871 5872 5873 5874 5875 5875 5876 5876 5876 5876 5876 5876 5876 5875 5875 5874 5873 5873 5872 5871 5870 5869 5868 5867 5866 5864 5863 5862 5862 5860 5860 5859 5858 5857
5851 5854 5856 5858 5860 5862 5864 5865 5867 5868 5869 5870 5870 5871 5871 5872 5872 5872 5872 5872 5872 5871 5871 5870 5870 5869 5868 5867 5866 5865 5863 5862 5861 5860 5859 5858 5857 5855 5854 5853 5852 5851 5850
5848 5851 5853 5855 5857 5859 5860 5862 5863 5864 5865 5866 5867 5867 5867 5867 5867 5867 5867 5867 5867 5867 5866 5865 5864 5863 5862 5861 5860 5858 5857 5856 5855 5853 5852 5851 5850 5848 5847 5846 5845 5843 5842
5845 5848 5850 5852 5854 5855 5856 5858 5859 5860 5861 5862 5862 5862 5862 5862 5862 5862 5862 5861 5861 5861 5860 5859 5858 5857 5856 5854 5853 5851 5850 5848 5847 5845 5844 5843 5841 5840 5838 5837 5836 5835 5833
5842 5844 5847 5848 5850 5851 5853 5854 5855 5856 5856 5857 5857 5858 5857 5857 5857 5856 5856 5855 5854 5854 5853 5852 5850 5849 5848 5846 5845 5843 5841 5840 5838 5836 5835 5833 5831 5830 5828 5827 5825 5824 5823
5839 5841 5843 5844 5846 5847 5848 5849 5850 5851 5851 5852 5852 5852 5852 5851 5851 5850 5849 5848 5847 5846 5845 5844 5842 5840 5839 5837 5836 5834 5832 5830 5828 5826 5824 5823 5821 5819 5817 5815 5814 5813 5811
5835 5837 5839 5840 5842 5843 5844 5845 5845 5846 5846 5846 5846 5846 5845 5845 5844 5843 5842 5841 5839 5838 5836 5835 5833 5831 5829 5827 5825 5823 5821 5819 5817 5815 5813 5811 5809 5807 5805 5803 5801 5800 5798
5832 5833 5835 5836 5837 5838 5839 5840 5840 5840 5840 5840 5840 5840 5839 5838 5837 5836 5834 5833 5831 5829 5827 5826 5824 5821 5819 5817 5814 5812 5810 5808 5805 5802 5800 5798 5796 5794 5791 5789 5787 5785 5784
5828 5829 5830 5831 5832 5833 5834 5834 5835 5835 5834 5834 5834 5833 5832 5831 5829 5828 5826 5824 5822 5820 5818 5816 5814 5811 5808 5806 5803 5800 5798 5796 5793 5790 5787 5784 5781 5779 5776 5773 5771 5769 5767
5824 5825 5825 5826 5827 5828 5828 5829 5828 5828 5828 5827 5826 5825 5824 5823 5821 5819 5817 5815 5813 5810 5808 5806 5803 5800 5797 5794 5791 5787 5784 5781 5778 5775 5772 5769 5765 5762 5759 5756 5753 5751 5749
5820 5820 5821 5821 5822 5822 5822 5822 5821 5821 5820 5819 5818 5817 5816 5814 5812 5810 5807 5805 5802 5799 5796 5793 5790 5787 5783 5780 5776 5773 5769 5765 5761 5757 5754 5752 5748 5745 5741 5737 5734 5732 5730
5815 5815 5815 5815 5815 5816 5815 5815 5815 5814 5812 5811 5810 5808 5806 5804 5802 5800 5797 5794 5791 5788 5784 5780 5777 5773 5769 5765 5760 5756 5752 5748 5745 5740 5735 5732 5729 5726 5723 5719 5715 5712 5709
5810 5810 5810 5809 5809 5809 5808 5808 5807 5805 5804 5802 5801 5799 5796 5794 5791 5788 5785 5782 5779 5775 5771 5766 5762 5758 5753 5748 5743 5739 5734 5730 5726 5722 5716 5712 5708 5705 5703 5700 5695 5690 5688